Regional Weather Roundup
Issued by NWS

Home | Current Version | Previous Version | Text Only | Print | Product List | Glossary On
Versions: 1 2 3 4 5 6 7 8 9 10 11 12 13 14 15 16 17 18 19 20 21 22 23 24 25 26 27 28 29 30 31 32 33 34 35 36 37 38 39 40 41 42 43 44 45 46 47 48 49 50
000
ASUS43 KTOP 011259
RWRKS

WEATHER ROUNDUP FOR KANSAS
NATIONAL WEATHER SERVICE GOODLAND KS
800 AM CDT SUN MAY 01 2016

NOTE:  "FAIR" INDICATES FEW OR NO CLOUDS BELOW 12,000 FEET WITH NO
SIGNIFICANT WEATHER AND/OR OBSTRUCTIONS TO VISIBILITY.

KSZ001>006-013>018-027>032-041>047-011400-
NORTHWEST KANSAS

CITY           SKY/WX    TMP DP  RH WIND       PRES   REMARKS
GOODLAND       MIX PCPN  35  33  92 N17G25    30.17R FOG     WCI  25
HAYS           CLOUDY    43  34  70 NW17G25   30.08R
HILL CITY      CLOUDY    40  37  89 NW15      30.12R WCI  32
RUSSELL        CLOUDY    44  42  93 NW18G25   30.04R
$$

KSZ061>065-074>080-084>089-011400-
SOUTHWEST KANSAS

CITY           SKY/WX    TMP DP  RH WIND       PRES   REMARKS
DODGE CITY     CLOUDY    40  34  79 NW17G26   30.11R WCI  31
ELKHART          N/A     40  32  74 NW9         N/A
GARDEN CITY    CLOUDY    38  34  85 NW21      30.13R WCI  28
GREAT BEND     CLOUDY    45  37  76 NW13      30.07R
LIBERAL        MOSUNNY   41  30  65 NW16G23   30.14R
$$

KSZ066>073-081>083-090>101-011400-
SOUTHEAST KANSAS

CITY           SKY/WX    TMP DP  RH WIND       PRES   REMARKS
CHANUTE        MOSUNNY   47  43  86 W10       30.00R
COFFEYVILLE    MOSUNNY   49  44  83 W14       30.03R
HUTCHINSON     CLOUDY    46  40  79 W16       30.04R
MEDICINE LODGE   N/A     45  37  73 NW13G26   30.07R
NEWTON         MOSUNNY   45  36  70 W13       30.05R
PARSONS        SUNNY     49  46  90 W7        30.03R
WICHITA INTL   CLOUDY    47  39  74 NW10      30.03R
WICHITA JABRA  PTSUNNY   45  40  82 W10       30.03R
WINFIELD       CLOUDY    44  40  85 NW8       30.04R
$$

KSZ007>012-019>026-033>040-048>060-102>105-011400-
NORTHEAST KANSAS

CITY           SKY/WX    TMP DP  RH WIND       PRES   REMARKS
CONCORDIA      CLOUDY    46  43  89 NW12G24   29.98R
EMPORIA        SUNNY     46  42  86 W14G20    30.00R
LAWRENCE       MOSUNNY   50  46  86 W7        29.96R
MANHATTAN      PTSUNNY   48  41  76 W7        29.97R
OLATHE IND     SUNNY     50  46  86 W9        29.96R
OLATHE EXE     MOSUNNY   50  45  83 W7        29.95R
SALINA         CLOUDY    47  43  86 W16       30.02R FOG
TOPEKA BILLARD MOSUNNY   50  45  83 W6        29.96R
TOPEKA FORBES  SUNNY     50  45  83 W7        29.96R
$$




USA.gov is the U.S. government's official web portal to all federal, state and local government web resources and services.